Flag for U.S.A. Weather past 2 weeks in Spartanburg, South Carolina, U.S.A.

55 °F

Rain. Overcast.

Feels Like: 55 °F
Forecast: 53 / 58 °F
Wind: No wind

Location: Spartanburg Memorial

Current Time: Nov 30, 2015 at 2:20:46 AM

Latest Report: Nov 30, 2015 at 1:55 AM

Visibility: 4 mi

Pressure: 30.12 "Hg

Humidity: 94%

Dew point: 54 °F

Location of SpartanburgLocation

Historic Weather in Spartanburg — Graph


Spartanburg temperature yesterday

Maximum temperature yesterday: 68 °F (at 12:15 PM)
Minimum temperature yesterday: 50 °F (at 7:55 AM)
Average temperature yesterday: 60 °F

Past Weeks' High & Low Weather Summary

High73 °F (Nov 19, 2:55 PM)100% (Nov 16, 3:35 AM)30.72 "Hg (Nov 16, 3:35 AM)
Low27 °F (Nov 23, 7:15 AM)18% (Nov 15, 12:35 PM)29.91 "Hg (Nov 22, 3:35 AM)
Average50 °F66%30.28 "Hg
* Reported Nov 15 12:35 AM — Nov 30 12:55 AM, Spartanburg, Weather by CustomWeather, © 2015

Note: Actual official high and low records may vary slightly from our data, if they occured in-between our weather recording intervals... More about our weather records


Spartanburg weather history for previous 24 hours

Time TempWeatherWind HumidityBarometerVisibility
12:55 AM
Mon, Nov 30
55 °FHeavy rain. Mostly cloudy.3 mph94%30.13 "Hg5 mi
12:35 AM55 °FHeavy rain. Mostly cloudy.3 mph94%30.15 "Hg5 mi
12:15 AM55 °FRain. Overcast.No wind100%30.16 "Hg5 mi
11:55 PM
Sun, Nov 29
57 °FDrizzle. Overcast.3 mph94%30.15 "Hg5 mi
11:35 PM57 °FRain. Overcast.No wind94%30.15 "Hg10 mi
10:35 PM57 °FLight rain. Overcast.No wind94%30.15 "Hg7 mi
10:15 PM57 °FLight rain. Overcast.No wind94%30.16 "Hg10 mi
9:55 PM57 °FLight rain. Overcast.No wind94%30.15 "Hg10 mi
9:35 PM57 °FLight rain. Mostly cloudy.No wind94%30.17 "Hg7 mi
9:15 PM57 °FRain. Overcast.No wind94%30.17 "Hg5 mi
7:35 PM59 °FRain. Mostly cloudy.3 mph88%30.14 "Hg7 mi
7:15 PM61 °FRain. Mostly cloudy.5 mph83%30.15 "Hg10 mi
6:55 PM61 °FLight rain. Overcast.6 mph83%30.13 "Hg10 mi
6:35 PM61 °FMostly cloudy.5 mph83%30.12 "Hg10 mi
5:55 PM63 °FMostly cloudy.3 mph73%30.11 "Hg10 mi
5:35 PM63 °FPartly cloudy.No wind73%30.10 "Hg10 mi
4:55 PM63 °FPartly sunny.No wind73%30.09 "Hg10 mi
4:35 PM64 °FLight rain. Mostly cloudy.No wind68%30.10 "Hg10 mi
4:15 PM64 °FPartly sunny.3 mph64%30.10 "Hg10 mi
3:55 PM64 °FPartly sunny.No wind64%30.10 "Hg10 mi
3:35 PM64 °FScattered clouds.No wind64%30.10 "Hg10 mi
3:15 PM66 °FScattered clouds.No wind64%30.11 "Hg10 mi
2:55 PM64 °FDrizzle. Broken clouds.5 mph64%30.12 "Hg10 mi
2:35 PM66 °FSunny.5 mph60%30.11 "Hg10 mi
2:15 PM66 °FScattered clouds.5 mph60%30.12 "Hg10 mi
1:55 PM66 °FLight rain. Mostly cloudy.3 mph64%30.13 "Hg10 mi
1:35 PM68 °FLight rain. More clouds than sun.3 mph56%30.13 "Hg10 mi
1:15 PM68 °FLight rain. More clouds than sun.No wind56%30.13 "Hg10 mi
12:55 PM68 °FOvercast.3 mph56%30.14 "Hg10 mi
12:35 PM68 °FOvercast.No wind56%30.15 "Hg10 mi
12:15 PM68 °FOvercast.3 mph53%30.16 "Hg10 mi
11:55 AM66 °FPartly sunny.No wind56%30.16 "Hg10 mi
11:35 AM66 °FScattered clouds.No wind56%30.17 "Hg10 mi
11:15 AM64 °FOvercast.No wind60%30.18 "Hg7 mi
10:55 AM64 °FPartly sunny.No wind60%30.19 "Hg10 mi
10:35 AM63 °FPartly sunny.No wind68%30.19 "Hg7 mi
10:15 AM63 °FPartly sunny.No wind68%30.19 "Hg10 mi
9:55 AM61 °FPartly sunny.No wind72%30.19 "Hg10 mi
9:35 AM59 °FPartly sunny.No wind77%30.19 "Hg10 mi
9:15 AM59 °FMostly cloudy.No wind77%30.19 "Hg10 mi
8:55 AM55 °FOvercast.No wind88%30.19 "Hg10 mi
8:35 AM55 °FOvercast.No wind88%30.19 "Hg10 mi
8:15 AM54 °FPartly sunny.No wind94%30.18 "Hg10 mi
7:55 AM50 °FScattered clouds.No wind100%30.19 "Hg7 mi
7:35 AM52 °FScattered clouds.No wind94%30.18 "Hg10 mi
7:15 AM52 °FSunny.No wind94%30.17 "Hg7 mi
6:55 AM52 °FClear.No wind94%30.17 "Hg7 mi
6:35 AM52 °FClear.No wind94%30.17 "Hg10 mi
6:15 AM54 °FFog.No wind88%30.17 "Hg5 mi
5:55 AM54 °FClear.No wind94%30.16 "Hg10 mi
5:35 AM54 °FClear.No wind94%30.16 "Hg10 mi
5:15 AM54 °FPassing clouds.No wind94%30.15 "Hg10 mi
4:35 AM55 °FOvercast.No wind88%30.16 "Hg10 mi
4:15 AM55 °FOvercast.3 mph88%30.17 "Hg10 mi
3:55 AM55 °FOvercast.No wind88%30.17 "Hg10 mi
3:35 AM57 °FOvercast.No wind82%30.17 "Hg10 mi
3:15 AM57 °FOvercast.No wind82%30.17 "Hg10 mi
2:55 AM55 °FOvercast.No wind88%30.18 "Hg10 mi
Weather by CustomWeather, © 2015

See weather overviewHow to use our weather pages